Diretta Meteo Roma-Ciampino, Italiasabato 20 aprile ore 10:20

Mappa
Sereno 18 °C Sereno 24 Ore: T.min 9 T.max 21
Ponente Nord Km/h 5.5 Punto di rugiada: 7 °C Umidità: 48% Visibilità: 10 Km
Il sole sorge alle: 06:19 Il sole tramonta alle: 19:57
20 Aprile 2019 10:20 tempo osservato: Sereno Sereno 18 48 1025 vento: Nord N 5.5
20 Aprile 2019 09:50 tempo osservato: Sereno Sereno 17 55 1025 vento: Nord N 7.4
20 Aprile 2019 09:20 tempo osservato: Sereno Sereno 16 55 1025 vento: Nord N 7.4
20 Aprile 2019 08:50 tempo osservato: Sereno Sereno 15 58 1025 vento: Nord N 7.4
20 Aprile 2019 08:20 tempo osservato: Sereno Sereno 13 58 1025 vento: Nord N 5.5
20 Aprile 2019 07:50 tempo osservato: Sereno Sereno 14 54 1025 vento: Nord E 11.1
20 Aprile 2019 07:20 tempo osservato: Sereno Sereno 12 57 1025 vento: Nord E 11.1
20 Aprile 2019 06:50 tempo osservato: Sereno Sereno 10 66 1024 vento: Nord N 5.5
20 Aprile 2019 05:50 tempo osservato: Sereno Sereno 9 70 1025 vento: Nord N 5.5
20 Aprile 2019 05:20 tempo osservato: Sereno Sereno 10 66 1024 vento: Nord N 3.7
20 Aprile 2019 04:50 tempo osservato: Sereno Sereno 10 61 1024 vento: Nord N 3.7
20 Aprile 2019 04:20 tempo osservato: Sereno Sereno 11 53 1024 vento: Nord N 3.7
20 Aprile 2019 03:50 tempo osservato: Sereno Sereno 11 53 1024 vento: Nord N 3.7
20 Aprile 2019 03:20 tempo osservato: Sereno Sereno 12 50 1025 vento: Nord N 3.7
20 Aprile 2019 02:50 tempo osservato: Sereno Sereno 12 50 1025 vento: Nord E/NE 7.4
20 Aprile 2019 02:20 tempo osservato: Sereno Sereno 12 50 1025 vento: Nord E/NE 7.4
20 Aprile 2019 01:50 tempo osservato: Sereno Sereno 13 47 1025 vento: Nord E 9.3
20 Aprile 2019 00:50 tempo osservato: Sereno Sereno 13 50 1026 vento: Nord E 11.1
20 Aprile 2019 00:20 tempo osservato: Sereno Sereno 13 54 1026 vento: Nord E 11.1
19 Aprile 2019 23:50 tempo osservato: Sereno Sereno 12 62 1026 vento: Nord E 7.4
19 Aprile 2019 23:20 tempo osservato: Sereno Sereno 13 54 1027 vento: Nord E 9.3
19 Aprile 2019 22:50 tempo osservato: Sereno Sereno 12 62 1027 vento: Nord E 7.4
19 Aprile 2019 22:20 tempo osservato: Sereno Sereno 13 62 1027 vento: Nord N 5.5
19 Aprile 2019 21:50 tempo osservato: Sereno Sereno 14 58 1027 vento: Nord N 1.8
19 Aprile 2019 21:20 tempo osservato: Sereno Sereno 14 54 1027 vento: Nord N 1.8
19 Aprile 2019 20:50 tempo osservato: Sereno Sereno 15 51 1026 vento: Nord N 1.8
19 Aprile 2019 20:20 tempo osservato: Sereno Sereno 16 47 1026 vento: Nord N 3.7
19 Aprile 2019 19:50 tempo osservato: Sereno Sereno 17 41 1026 vento: Nord N 5.5
19 Aprile 2019 19:20 tempo osservato: Sereno Sereno 18 39 1026 vento: Nord N 5.5
19 Aprile 2019 18:50 tempo osservato: Sereno Sereno 19 37 1026 vento: Nord O/SO 9.3
19 Aprile 2019 18:20 tempo osservato: Sereno Sereno 19 34 1026 vento: Nord O/SO 11.1
19 Aprile 2019 17:50 tempo osservato: Sereno Sereno 19 37 1026 vento: Nord SO 13
19 Aprile 2019 17:20 tempo osservato: Sereno Sereno 20 34 1026 vento: Nord SO 13
19 Aprile 2019 16:50 tempo osservato: Sereno Sereno 20 34 1026 vento: Nord SO 11.1
19 Aprile 2019 16:20 tempo osservato: Poco Nuvoloso Poco Nuvoloso 20 34 1026 vento: Nord SO 13
19 Aprile 2019 15:50 tempo osservato: Poco Nuvoloso Poco Nuvoloso 20 32 1026 vento: Nord SO 14.8
19 Aprile 2019 15:20 tempo osservato: Poco Nuvoloso Poco Nuvoloso 20 34 1026 vento: Nord S/SO 13
19 Aprile 2019 14:50 tempo osservato: Poco Nuvoloso Poco Nuvoloso 20 34 1026 vento: Nord S/SO 13
19 Aprile 2019 14:20 tempo osservato: Sereno Sereno 20 34 1026 vento: Nord SO 14.8
19 Aprile 2019 13:50 tempo osservato: Sereno Sereno 20 34 1026 vento: Nord S/SO 14.8
19 Aprile 2019 13:20 tempo osservato: Sereno Sereno 21 30 1026 vento: Nord SO 7.4
19 Aprile 2019 12:50 tempo osservato: Sereno Sereno 20 30 1026 vento: Nord N 9.3
19 Aprile 2019 12:20 tempo osservato: Sereno Sereno 20 32 1026 vento: Nord O/NO 9.3
19 Aprile 2019 11:50 tempo osservato: Sereno Sereno 19 32 1026 vento: Nord O 9.3
19 Aprile 2019 11:20 tempo osservato: Sereno Sereno 19 37 1026 vento: Nord O/NO 7.4
19 Aprile 2019 10:50 tempo osservato: Sereno Sereno 18 42 1026 vento: Nord O 7.4